Location: High Meadows Obseravatory
(40.7417°N, 111.5713°W)
Time: 02:07:40
(UTC-07:00)

Tiangong - Visible Passes

Search period start: 22 January 2022 00:00
Search period end: 01 February 2022 00:00
Orbit: 383 x 386 km, 41.5° (Epoch: 21 January)

Date Brightness Start Highest point End Pass type
(mag) Time Alt. Az. Time Alt. Az. Time Alt. Az.
25 Jan 3.3 19:25:46 10° SSW 19:27:02 17° S 19:27:02 17° S visible
26 Jan 3.4 18:27:08 10° S 18:28:41 13° SSE 18:30:15 10° ESE visible
26 Jan 4.1 20:01:59 10° WSW 20:02:34 14° WSW 20:02:34 14° WSW visible
27 Jan 1.9 19:02:27 10° SW 19:05:22 35° SSE 19:05:48 33° SE visible
28 Jan 2.8 18:03:11 10° SSW 18:05:42 22° SSE 18:08:12 10° E visible
28 Jan 2.5 19:39:06 10° WSW 19:41:10 37° WSW 19:41:10 37° WSW visible
29 Jan 1.4 18:39:21 10° WSW 18:42:26 55° SSE 18:44:15 22° E visible
29 Jan 4.5 20:16:05 10° W 20:16:28 13° W 20:16:28 13° W visible
30 Jan 0.9 19:16:11 10° W 19:19:21 83° N 19:19:30 78° NE visible
31 Jan 1.1 18:16:16 10° WSW 18:19:26 79° SSE 18:22:30 11° E visible
31 Jan 3.3 19:53:09 10° W 19:54:42 26° W 19:54:42 26° W visible
